FW7051 Weather Reports


time (UTC)temp
C
wind
direction
speed
KPH
gust
KPH
rain 1hr
cm
rain 24hr
cm
rain mn
cm
humidity
%
barometer
mb
20260906040038 23 0 0.0 0.0 0.00 0.00 0.00 88 1014.0
20260906034023 24 0 0.0 0.0 0.00 0.00 0.00 87 1014.0
20260906033517 24 0 0.0 0.0 0.00 0.00 0.00 86 1013.9
20260906032519 24 0 0.0 0.0 0.00 0.00 0.00 86 1013.8
20260906032020 24 0 0.0 0.0 0.00 0.00 0.00 85 1013.7
20260906031541 24 0 0.0 0.0 0.00 0.00 0.00 85 1013.7
20260906031016 24 0 0.0 0.0 0.00 0.00 0.00 85 1013.8
20260906030516 24 0 0.0 0.0 0.00 0.00 0.00 85 1013.6
20260906030043 24 0 0.0 0.0 0.00 0.00 0.00 84 1013.7
20260906024020 25 0 0.0 0.0 0.00 0.00 0.00 83 1013.6
20260906023520 25 0 0.0 0.0 0.00 0.00 0.00 83 1013.6
20260906023102 25 0 0.0 0.0 0.00 0.00 0.00 83 1013.5
20260906022517 25 0 0.0 0.0 0.00 0.00 0.00 83 1013.4
20260906022017 25 0 0.0 0.0 0.00 0.00 0.00 83 1013.4
20260906021539 25 0 0.0 0.0 0.00 0.00 0.00 83 1013.2
20260906021020 25 0 0.0 0.0 0.00 0.00 0.00 83 1013.1
20260906020518 25 0 0.0 0.0 0.00 0.00 0.00 82 1013.1
20260906020035 25 0 0.0 0.0 0.00 0.00 0.00 82 1013.1
20260906014020 26 0 0.0 1.6 0.00 0.00 0.00 81 1012.8
20260906013526 26 0 0.0 3.2 0.00 0.00 0.00 80 1012.8
20260906013036 26 192 0.0 3.2 0.00 0.00 0.00 80 1012.7
20260906012516 26 0 0.0 0.0 0.00 0.00 0.00 79 1012.7
20260906010524 27 0 0.0 0.0 0.00 0.00 0.00 76 1012.4
20260906005517 27 0 0.0 0.0 0.00 0.00 0.00 75 1012.2
20260906005021 27 0 0.0 0.0 0.00 0.00 0.00 75 1012.2
20260906004545 28 0 0.0 0.0 0.00 0.00 0.00 74 1012.2
20260906004021 28 0 0.0 0.0 0.00 0.00 0.00 73 1012.2
20260906003516 28 0 0.0 0.0 0.00 0.00 0.00 73 1012.3
20260906003037 28 0 0.0 0.0 0.00 0.00 0.00 72 1012.1
20260906002018 29 0 0.0 1.6 0.00 0.00 0.00 70 1012.3
20260906001022 29 0 0.0 3.2 0.00 0.00 0.00 68 1012.5
20260906000520 30 0 0.0 3.2 0.00 0.00 0.00 68 1012.5
20260905235519 30 0 0.0 1.6 0.00 0.00 0.00 67 1012.5
20260905235022 30 0 0.0 3.2 0.00 0.00 0.00 67 1012.5
20260905234538 30 192 0.0 3.2 0.00 0.00 0.00 66 1012.6
20260905234016 30 192 0.0 3.2 0.00 0.00 0.00 64 1012.4
20260905232522 30 0 0.0 3.2 0.00 0.00 0.00 64 1012.5
20260905231020 30 192 0.0 6.4 0.00 0.00 0.00 63 1012.6
20260905230517 30 192 1.6 6.4 0.00 0.00 0.00 63 1012.4
20260905230044 30 192 0.0 3.2 0.00 0.00 0.00 64 1012.6
20260905225519 30 0 0.0 3.2 0.00 0.00 0.00 64 1012.5
20260905225018 30 0 0.0 6.4 0.00 0.00 0.00 64 1012.6
20260905224021 30 192 0.0 3.2 0.00 0.00 0.00 65 1012.9
20260905223518 30 0 0.0 6.4 0.00 0.00 0.00 66 1012.7
20260905223040 30 0 0.0 6.4 0.00 0.00 0.00 67 1012.5
20260905222517 30 192 0.0 6.4 0.00 0.00 0.00 65 1012.7
20260905222020 30 192 0.0 4.8 0.00 0.00 0.00 66 1012.8
20260905221541 31 0 0.0 3.2 0.00 0.00 0.00 68 1012.8
20260905221022 31 192 0.0 3.2 0.00 0.00 0.00 67 1012.8
20260905220520 31 0 0.0 0.0 0.00 0.00 0.00 67 1012.5
20260905220039 31 0 0.0 1.6 0.00 0.00 0.00 66 1012.6
20260905215519 31 0 0.0 1.6 0.00 0.00 0.00 65 1012.7
20260905215016 31 0 0.0 9.7 0.00 0.00 0.00 64 1012.6
20260905214538 31 0 0.0 16.1 0.00 0.00 0.00 64 1012.5
20260905213520 31 192 4.8 16.1 0.00 0.00 0.00 64 1012.5
20260905212520 31 186 3.2 12.9 0.00 0.00 0.00 66 1012.7
20260905212019 31 186 3.2 16.1 0.00 0.00 0.00 65 1012.8
20260905211020 32 186 3.2 20.9 0.00 0.00 0.00 63 1012.7
20260905210518 33 186 8.0 20.9 0.00 0.00 0.00 60 1012.6
20260905210039 34 188 9.7 27.4 0.00 0.00 0.00 57 1012.8
20260905205518 35 188 11.3 27.4 0.00 0.00 0.00 54 1012.6
20260905205017 36 243 3.2 12.9 0.00 0.00 0.00 54 1012.4
20260905202526 35 243 3.2 11.3 0.00 0.00 0.00 51 1012.7
20260905202020 35 0 1.6 12.9 0.00 0.00 0.00 52 1012.8
20260905201019 36 243 4.8 17.7 0.00 0.00 0.00 49 1012.8
20260905200520 36 244 6.4 17.7 0.00 0.00 0.00 49 1012.7
20260905195517 37 244 0.0 4.8 0.00 0.00 0.00 44 1012.7
20260905195021 37 0 0.0 8.0 0.00 0.00 0.00 45 1012.8
20260905194538 37 244 3.2 8.0 0.00 0.00 0.00 42 1012.8
20260905194019 38 244 1.6 11.3 0.00 0.00 0.00 42 1012.8
20260905193520 38 244 3.2 14.5 0.00 0.00 0.00 42 1012.9
20260905192020 37 245 3.2 12.9 0.00 0.00 0.00 43 1013.2
20260905191020 38 245 4.8 12.9 0.00 0.00 0.00 43 1013.3
20260905190517 38 245 3.2 12.9 0.00 0.00 0.00 43 1013.2
20260905185517 37 244 0.0 6.4 0.00 0.00 0.00 46 1013.4
20260905185018 36 244 1.6 6.4 0.00 0.00 0.00 51 1013.5
20260905184542 36 0 0.0 4.8 0.00 0.00 0.00 48 1013.5
20260905184019 36 0 0.0 8.0 0.00 0.00 0.00 47 1013.6
20260905183516 37 244 1.6 14.5 0.00 0.00 0.00 46 1013.6
20260905182523 37 246 4.8 12.9 0.00 0.00 0.00 45 1013.7
20260905182024 37 247 1.6 12.9 0.00 0.00 0.00 46 1013.8
20260905181539 38 247 3.2 12.9 0.00 0.00 0.00 44 1013.7
20260905181018 38 246 3.2 11.3 0.00 0.00 0.00 44 1013.8
20260905180516 37 0 1.6 6.4 0.00 0.00 0.00 46 1013.9
20260905175520 37 246 3.2 8.0 0.00 0.00 0.00 46 1014.0
20260905175020 37 246 1.6 6.4 0.00 0.00 0.00 47 1013.9
20260905174020 38 246 0.0 12.9 0.00 0.00 0.00 44 1014.0
20260905173517 38 246 3.2 12.9 0.00 0.00 0.00 46 1014.2
20260905173037 38 246 1.6 11.3 0.00 0.00 0.00 44 1014.1
20260905172516 38 246 3.2 11.3 0.00 0.00 0.00 48 1014.3
20260905172019 37 246 3.2 11.3 0.00 0.00 0.00 46 1014.2
20260905171015 37 246 1.6 11.3 0.00 0.00 0.00 46 1014.4
20260905165020 37 246 3.2 8.0 0.00 0.00 0.00 48 1014.7
20260905164018 37 0 3.2 12.9 0.00 0.00 0.00 48 1014.7
20260905163523 37 246 4.8 12.9 0.00 0.00 0.00 51 1014.8
20260905161021 36 246 1.6 6.4 0.00 0.00 0.00 53 1015.2
20260905160521 36 0 1.6 6.4 0.00 0.00 0.00 53 1015.2
20260905155519 36 246 1.6 8.0 0.00 0.00 0.00 51 1015.3
20260905155020 35 246 1.6 6.4 0.00 0.00 0.00 54 1015.3
20260905154539 35 246 1.6 4.8 0.00 0.00 0.00 53 1015.3
20260905154019 35 0 0.0 11.3 0.00 0.00 0.00 53 1015.3
20260905152518 35 246 1.6 4.8 0.00 0.00 0.00 55 1015.3
20260905152018 35 0 1.6 4.8 0.00 0.00 0.00 54 1015.3
20260905151020 34 246 1.6 4.8 0.00 0.00 0.00 58 1015.4
20260905150517 34 246 0.0 11.3 0.00 0.00 0.00 57 1015.3
20260905150039 33 246 1.6 11.3 0.00 0.00 0.00 56 1015.3
20260905145516 33 0 1.6 4.8 0.00 0.00 0.00 58 1015.3
20260905145018 33 0 0.0 6.4 0.00 0.00 0.00 59 1015.3
20260905142518 32 246 0.0 4.8 0.00 0.00 0.00 69 1015.2
20260905142017 31 246 1.6 4.8 0.00 0.00 0.00 69 1015.2
20260905141537 31 246 0.0 3.2 0.00 0.00 0.00 73 1015.3
20260905135521 29 246 0.0 3.2 0.00 0.00 0.00 79 1015.3
20260905135019 28 246 0.0 3.2 0.00 0.00 0.00 81 1015.4
20260905134020 26 0 0.0 3.2 0.00 0.00 0.00 93 1015.4
20260905133519 25 0 0.0 3.2 0.00 0.00 0.00 95 1015.4
20260905133039 25 0 0.0 1.6 0.00 0.00 0.00 96 1015.5
20260905132518 25 0 0.0 1.6 0.00 0.00 0.00 97 1015.3
20260905132018 24 0 0.0 1.6 0.00 0.00 0.00 97 1015.4
20260905125518 22 246 0.0 3.2 0.00 0.00 0.00 98 1015.4
20260905125020 22 0 0.0 1.6 0.00 0.00 0.00 98 1015.3
20260905124017 22 0 0.0 1.6 0.00 0.00 0.00 97 1015.2
20260905123518 22 0 0.0 1.6 0.00 0.00 0.00 97 1015.2
20260905123036 21 0 0.0 1.6 0.00 0.00 0.00 97 1015.2
20260905122516 21 0 0.0 0.0 0.00 0.00 0.00 97 1015.2
20260905122017 21 0 0.0 1.6 0.00 0.00 0.00 96 1015.2
20260905115523 21 0 0.0 0.0 0.00 0.00 0.00 96 1014.9
20260905115020 21 0 0.0 1.6 0.00 0.00 0.00 96 1014.8
20260905114544 21 0 0.0 1.6 0.00 0.00 0.00 96 1014.7
20260905114019 21 0 0.0 1.6 0.00 0.00 0.00 96 1014.7
20260905113518 21 0 0.0 1.6 0.00 0.00 0.00 96 1014.7
20260905112516 21 0 0.0 0.0 0.00 0.00 0.00 95 1014.5
20260905110520 21 0 0.0 0.0 0.00 0.00 0.00 96 1014.5
20260905105519 21 0 0.0 0.0 0.00 0.00 0.00 95 1014.4
20260905105018 21 0 0.0 0.0 0.00 0.00 0.00 95 1014.3
20260905104542 21 0 0.0 0.0 0.00 0.00 0.00 95 1014.4
20260905104019 21 0 0.0 1.6 0.00 0.00 0.00 95 1014.4
20260905103041 21 0 0.0 1.6 0.00 0.00 0.00 95 1014.4
20260905102020 21 0 0.0 0.0 0.00 0.00 0.00 95 1014.5
20260905101539 21 0 0.0 0.0 0.00 0.00 0.00 95 1014.5
20260905101019 21 0 0.0 0.0 0.00 0.00 0.00 94 1014.4
20260905100519 21 0 0.0 0.0 0.00 0.00 0.00 94 1014.4
20260905100042 22 0 0.0 0.0 0.00 0.00 0.00 94 1014.4
20260905095520 22 0 0.0 0.0 0.00 0.00 0.00 94 1014.4
20260905095021 22 0 0.0 0.0 0.00 0.00 0.00 94 1014.3
20260905094542 22 0 0.0 0.0 0.00 0.00 0.00 94 1014.3
20260905094018 22 0 0.0 0.0 0.00 0.00 0.00 94 1014.3
20260905093037 22 0 0.0 0.0 0.00 0.00 0.00 94 1014.3
20260905092020 22 0 0.0 0.0 0.00 0.00 0.00 94 1014.4
20260905091539 22 0 0.0 0.0 0.00 0.00 0.00 94 1014.4
20260905091021 22 0 0.0 0.0 0.00 0.00 0.00 94 1014.3
20260905090518 22 0 0.0 0.0 0.00 0.00 0.00 94 1014.3
20260905090045 22 0 0.0 0.0 0.00 0.00 0.00 94 1014.3
20260905084538 22 0 0.0 0.0 0.00 0.00 0.00 94 1014.4
20260905083038 22 0 0.0 0.0 0.00 0.00 0.00 93 1014.4
20260905082523 22 0 0.0 0.0 0.00 0.00 0.00 93 1014.3
20260905082017 22 0 0.0 0.0 0.00 0.00 0.00 93 1014.4
20260905081536 22 0 0.0 0.0 0.00 0.00 0.00 93 1014.4
20260905081019 22 0 0.0 0.0 0.00 0.00 0.00 93 1014.4
20260905080519 22 0 0.0 0.0 0.00 0.00 0.00 93 1014.4
20260905080037 22 0 0.0 0.0 0.00 0.00 0.00 93 1014.5
20260905075518 22 0 0.0 0.0 0.00 0.00 0.00 93 1014.4
20260905074020 22 0 0.0 0.0 0.00 0.00 0.00 93 1014.4
20260905073521 22 0 0.0 0.0 0.00 0.00 0.00 92 1014.5
20260905072520 23 0 0.0 1.6 0.00 0.00 0.00 92 1014.5
20260905072025 23 0 0.0 3.2 0.00 0.00 0.00 92 1014.6
20260905071020 23 0 0.0 0.0 0.00 0.00 0.00 92 1014.6
20260905070516 23 0 0.0 0.0 0.00 0.00 0.00 92 1014.7
20260905065519 23 0 0.0 0.0 0.00 0.00 0.00 92 1014.6
20260905065016 23 0 0.0 0.0 0.00 0.00 0.00 91 1014.6
20260905064537 23 0 0.0 0.0 0.00 0.00 0.00 91 1014.7
20260905063518 23 0 0.0 0.0 0.00 0.00 0.00 91 1014.7
20260905062519 23 0 0.0 0.0 0.00 0.00 0.00 90 1014.9
20260905062018 23 0 0.0 0.0 0.00 0.00 0.00 90 1014.8
20260905061017 23 0 0.0 0.0 0.00 0.00 0.00 90 1014.8
20260905060517 23 0 0.0 0.0 0.00 0.00 0.00 90 1014.8
20260905055524 23 0 0.0 0.0 0.00 0.00 0.00 89 1014.8
20260905055018 23 0 0.0 0.0 0.00 0.00 0.00 90 1014.8
20260905054538 23 0 0.0 0.0 0.00 0.00 0.00 89 1014.7
20260905054019 23 0 0.0 0.0 0.00 0.00 0.00 89 1014.8
20260905052024 23 0 0.0 0.0 0.00 0.00 0.00 88 1014.8
20260905051018 23 0 0.0 0.0 0.00 0.00 0.00 88 1014.8
20260905050518 23 0 0.0 0.0 0.00 0.00 0.00 88 1014.7
20260905045523 23 0 0.0 0.0 0.00 0.00 0.00 88 1014.6
20260905045017 23 0 0.0 0.0 0.00 0.00 0.00 88 1014.7
20260905044537 23 0 0.0 0.0 0.00 0.00 0.00 87 1014.7
20260905044015 24 0 0.0 0.0 0.00 0.00 0.00 87 1014.6
20260905042020 24 0 0.0 0.0 0.00 0.00 0.00 87 1014.7
20260905041019 24 0 0.0 0.0 0.00 0.00 0.00 86 1014.7
20260905040521 24 0 0.0 0.0 0.00 0.00 0.00 86 1014.8